This is the latest recevied weather packets stored in our database for station/object K3SV. If no packets are shown the sender has not sent any weather packets the latest 10 day(s).
| Time | Temp. | Humidity | Pressure | Rain* | Wind** | Luminosity | Snow |
|---|---|---|---|---|---|---|---|
| 1778190043 | 33.33° C | 31% | 1013.6 hPa | 0 mm | - | 318 W/m² | - |
| 1778189739 | 33.33° C | 31% | 1013.4 hPa | 0 mm | - | 314 W/m² | - |
| 1778189436 | 32.78° C | 31% | 1013.8 hPa | 0 mm | - | 310 W/m² | - |
| 1778189132 | 33.33° C | 31% | 1013.6 hPa | 0 mm | - | 371 W/m² | - |
| 1778188829 | 33.33° C | 31% | 1013.5 hPa | 0 mm | - | 384 W/m² | - |
| 1778188526 | 32.78° C | 30% | 1013.8 hPa | 0 mm | - | 357 W/m² | - |
| 1778188222 | 32.78° C | 29% | 1013.7 hPa | 0 mm | - | 347 W/m² | - |
| 1778187919 | 32.78° C | 30% | 1013.7 hPa | 0 mm | - | 425 W/m² | - |
| 1778187616 | 32.78° C | 29% | 1013.8 hPa | 0 mm | - | 438 W/m² | - |
| 1778187313 | 33.33° C | 28% | 1013.7 hPa | 0 mm | - | 456 W/m² | - |
| 1778187009 | 33.33° C | 29% | 1014 hPa | 0 mm | - | 459 W/m² | - |
| 1778186705 | 33.33° C | 30% | 1013.6 hPa | 0 mm | - | 481 W/m² | - |
| 1778186403 | 33.89° C | 29% | 1013.8 hPa | 0 mm | - | 491 W/m² | - |
| 1778186101 | 33.33° C | 30% | 1013.9 hPa | 0 mm | - | 507 W/m² | - |
| 1778185797 | 33.33° C | 30% | 1013.7 hPa | 0 mm | - | 517 W/m² | - |
| 1778185493 | 35° C | 28% | 1014 hPa | 0 mm | - | 529 W/m² | - |
| 1778185190 | 34.44° C | 28% | 1014 hPa | 0 mm | - | 541 W/m² | - |
| 1778184890 | 34.44° C | 28% | 1013.9 hPa | 0 mm | - | 555 W/m² | - |
| 1778184587 | 33.89° C | 28% | 1014.1 hPa | 0 mm | - | 566 W/m² | - |
| 1778184282 | 34.44° C | 28% | 1014.1 hPa | 0 mm | - | 578 W/m² | - |
| 1778183978 | 33.89° C | 27% | 1014.1 hPa | 0 mm | - | 587 W/m² | - |
| 1778183676 | 33.89° C | 31% | 1014.1 hPa | 0 mm | - | 601 W/m² | - |
| 1778183373 | 33.89° C | 32% | 1014 hPa | 0 mm | - | 610 W/m² | - |
| 1778183070 | 34.44° C | 33% | 1014.2 hPa | 0 mm | - | 620 W/m² | - |
| 1778182765 | 33.89° C | 35% | 1014.1 hPa | 0 mm | - | 627 W/m² | - |
* Rain latest hour (hover to see other rain measurements)
** Current wind speed in m/s (hover to see current wind gust speed)